Tracking 30986 objects as of 9-Jul-2025
HD Live streaming from Space Station
objects crossing your sky now

OBJECT C

Track OBJECT C now!
10-day predictions


NORAD ID: 61871
Int'l Code: 2024-204C
Perigee: 505.0 km
Apogee: 527.5 km
Inclination: 97.5 °
Period: 94.8 minutes
Semi major axis: 6887 km
RCS: Unknown
Launch date: November 9, 2024
Source: People's Republic of China (PRC)
Launch site: Jiuquan Satellite Launch Center, China (JSC)
Your satellite tracking list
Your tracking list is empty




NASA's NSSDC Master Catalog

Two Line Element Set (TLE):
1 61871U 24203C   25190.18498293  .00006319  00000-0  30490-3 0  9993
2 61871  97.4678 257.8829 0016311 105.2548 255.0491 15.18916572 36699
Source of the keplerian elements: AFSPC